0610300051,2010,01,01,00,2.23
0610300051,2010,01,01,01,2.44
0610300051,2010,01,01,02,2.33
0610300051,2010,01,01,03,2.7
0610300051,2010,01,01,04,2.98
0610300051,2010,01,01,05,3.46
0610300051,2010,01,01,06,3.59
0610300051,2010,01,01,07,3.31
0610300051,2010,01,01,08,3.14
0610300051,2010,01,01,09,3.12
0610300051,2010,01,01,10,3.36
0610300051,2010,01,01,11,3.68
0610300051,2010,01,01,12,3.89
0610300051,2010,01,01,13,3.78
0610300051,2010,01,01,14,3.67
0610300051,2010,01,01,15,3.13
0610300051,2010,01,01,16,3.05
0610300051,2010,01,01,17,2.95
0610300051,2010,01,01,18,2.17
0610300051,2010,01,01,19,1.87
0610300051,2010,01,01,20,1
0610300051,2010,01,01,21,1.27
0610300051,2010,01,01,22,1.47
0610300051,2010,01,01,23,1.2
0610300051,2010,01,02,00,1.07
0610300051,2010,01,02,01,1.1
0610300051,2010,01,02,02,1.03
0610300051,2010,01,02,03,1.1
0610300051,2010,01,02,04,1.38
0610300051,2010,01,02,05,1.37
0610300051,2010,01,02,06,1.57
0610300051,2010,01,02,07,1.72
0610300051,2010,01,02,08,1.78
0610300051,2010,01,02,09,1.99
0610300051,2010,01,02,10,2.12
0610300051,2010,01,02,11,2.65
0610300051,2010,01,02,12,2.97
0610300051,2010,01,02,13,3.53
0610300051,2010,01,02,14,3.53
0610300051,2010,01,02,15,3.04
0610300051,2010,01,02,16,2.58
0610300051,2010,01,02,17,2.59
0610300051,2010,01,02,18,2.46
0610300051,2010,01,02,19,2.51
0610300051,2010,01,02,20,2.04
0610300051,2010,01,02,21,1.74
0610300051,2010,01,02,22,1.26
0610300051,2010,01,02,23,1.57
0610300051,2010,01,03,00,1.73
0610300051,2010,01,03,01,1.84
0610300051,2010,01,03,02,1.54
0610300051,2010,01,03,03,1.36
0610300051,2010,01,03,04,0.81
0610300051,2010,01,03,05,0.96
0610300051,2010,01,03,06,0.83
0610300051,2010,01,03,07,0.76
0610300051,2010,01,03,08,1.29
0610300051,2010,01,03,09,1.47
0610300051,2010,01,03,10,1.74
0610300051,2010,01,03,11,1.96
0610300051,2010,01,03,12,2.13
0610300051,2010,01,03,13,2.15
0610300051,2010,01,03,14,2.28
0610300051,2010,01,03,15,1.98
0610300051,2010,01,03,16,1.44
0610300051,2010,01,03,17,0.81
0610300051,2010,01,03,18,0.86
0610300051,2010,01,03,19,0.67
0610300051,2010,01,03,20,0.7
0610300051,2010,01,03,21,1
0610300051,2010,01,03,22,1.02
0610300051,2010,01,03,23,0.76
0610300051,2010,01,04,00,0.53
0610300051,2010,01,04,01,0.54
0610300051,2010,01,04,02,0.5
0610300051,2010,01,04,03,0.79
0610300051,2010,01,04,04,0.59
0610300051,2010,01,04,05,0.55
0610300051,2010,01,04,06,0.45
0610300051,2010,01,04,07,0.54
0610300051,2010,01,04,08,0.69
0610300051,2010,01,04,09,1.88
0610300051,2010,01,04,10,1.24
0610300051,2010,01,04,11,1.24
0610300051,2010,01,04,12,1.4
0610300051,2010,01,04,13,1.52
0610300051,2010,01,04,14,1.36
0610300051,2010,01,04,15,0.97
0610300051,2010,01,04,16,0.54
0610300051,2010,01,04,17,0.54
0610300051,2010,01,04,18,0.56
0610300051,2010,01,04,19,0.56
0610300051,2010,01,04,20,0.55
0610300051,2010,01,04,21,0.54
0610300051,2010,01,04,22,0.5
0610300051,2010,01,04,23,0.51
0610300051,2010,01,05,00,0.52
0610300051,2010,01,05,01,0.5
0610300051,2010,01,05,02,0.5
0610300051,2010,01,05,03,0.5
0610300051,2010,01,05,04,0.49
0610300051,2010,01,05,05,0.48
0610300051,2010,01,05,06,0.49
0610300051,2010,01,05,07,0.51
0610300051,2010,01,05,08,0.53
0610300051,2010,01,05,09,0.65
0610300051,2010,01,05,10,1.05
0610300051,2010,01,05,11,1.7
0610300051,2010,01,05,12,2.25
0610300051,2010,01,05,13,2.06
0610300051,2010,01,05,14,2.37
0610300051,2010,01,05,15,1.41
0610300051,2010,01,05,16,0.62
0610300051,2010,01,05,17,0.67
0610300051,2010,01,05,18,0.48
0610300051,2010,01,05,19,0.51
0610300051,2010,01,05,20,0.53
0610300051,2010,01,05,21,0.53
0610300051,2010,01,05,22,0.5
0610300051,2010,01,05,23,0.49
0610300051,2010,01,06,00,0.48
0610300051,2010,01,06,01,0.51
0610300051,2010,01,06,02,0.46
0610300051,2010,01,06,03,0.45
0610300051,2010,01,06,04,0.45
0610300051,2010,01,06,05,0.47
0610300051,2010,01,06,06,0.53
0610300051,2010,01,06,07,0.53
0610300051,2010,01,06,08,0.62
0610300051,2010,01,06,09,0.79
0610300051,2010,01,06,10,0.9
0610300051,2010,01,06,11,0.88
0610300051,2010,01,06,12,0.85
0610300051,2010,01,06,13,0.73
0610300051,2010,01,06,14,0.64
0610300051,2010,01,06,15,0.54
0610300051,2010,01,06,16,0.47
0610300051,2010,01,06,17,0.55
0610300051,2010,01,06,18,0.5
0610300051,2010,01,06,19,0.48
0610300051,2010,01,06,20,0.51
0610300051,2010,01,06,21,0.5
0610300051,2010,01,06,22,0.51
0610300051,2010,01,06,23,0.51
0610300051,2010,01,07,00,0.48
0610300051,2010,01,07,01,0.5
0610300051,2010,01,07,02,0.59
0610300051,2010,01,07,03,0.53
0610300051,2010,01,07,04,0.52
0610300051,2010,01,07,05,0.58
0610300051,2010,01,07,06,0.51
0610300051,2010,01,07,07,0.59
0610300051,2010,01,07,08,0.63
0610300051,2010,01,07,09,0.65
0610300051,2010,01,07,10,0.68
0610300051,2010,01,07,11,0.67
0610300051,2010,01,07,12,0.71
0610300051,2010,01,07,13,0.75
0610300051,2010,01,07,14,0.71
0610300051,2010,01,07,15,0.59
0610300051,2010,01,07,16,0.49
0610300051,2010,01,07,17,0.47
0610300051,2010,01,07,18,0.47
0610300051,2010,01,07,19,0.46
0610300051,2010,01,07,20,0.47
0610300051,2010,01,07,21,0.59
0610300051,2010,01,07,22,0.52
0610300051,2010,01,07,23,0.56
0610300051,2010,01,08,00,0.5
0610300051,2010,01,08,01,0.47
0610300051,2010,01,08,02,0.49
0610300051,2010,01,08,03,0.5
0610300051,2010,01,08,04,0.47
0610300051,2010,01,08,05,0.47
0610300051,2010,01,08,06,0.48
0610300051,2010,01,08,07,0.56
0610300051,2010,01,08,08,0.57
0610300051,2010,01,08,09,0.59
0610300051,2010,01,08,10,0.64
0610300051,2010,01,08,11,0.6
0610300051,2010,01,08,12,0.57
0610300051,2010,01,08,13,0.63
0610300051,2010,01,08,14,0.55
0610300051,2010,01,08,15,0.5
0610300051,2010,01,08,16,0.45
0610300051,2010,01,08,17,0.46
0610300051,2010,01,08,18,0.44
0610300051,2010,01,08,19,0.45
0610300051,2010,01,08,20,0.46
0610300051,2010,01,08,21,0.45
0610300051,2010,01,08,22,0.46
0610300051,2010,01,08,23,0.46
0610300051,2010,01,09,00,0.45
0610300051,2010,01,09,01,0.45
0610300051,2010,01,09,02,0.44
0610300051,2010,01,09,03,0.54
0610300051,2010,01,09,04,0.46
0610300051,2010,01,09,05,0.45
0610300051,2010,01,09,06,0.45
0610300051,2010,01,09,07,0.48
0610300051,2010,01,09,08,0.53
0610300051,2010,01,09,09,0.72
0610300051,2010,01,09,10,0.93
0610300051,2010,01,09,11,0.86
0610300051,2010,01,09,12,0.84
0610300051,2010,01,09,13,1.02
0610300051,2010,01,09,14,0.95
0610300051,2010,01,09,15,0.67
0610300051,2010,01,09,16,0.46
0610300051,2010,01,09,17,0.45
0610300051,2010,01,09,18,0.45
0610300051,2010,01,09,19,0.49
0610300051,2010,01,09,20,0.48
0610300051,2010,01,09,21,0.47
0610300051,2010,01,09,22,0.47
0610300051,2010,01,09,23,0.44
0610300051,2010,01,10,00,0.43
0610300051,2010,01,10,01,0.45
0610300051,2010,01,10,02,0.44
0610300051,2010,01,10,03,0.44
0610300051,2010,01,10,04,0.43
0610300051,2010,01,10,05,0.43
0610300051,2010,01,10,06,0.43
0610300051,2010,01,10,07,0.51
0610300051,2010,01,10,08,0.6
0610300051,2010,01,10,09,0.76
0610300051,2010,01,10,10,0.81
0610300051,2010,01,10,11,0.89
0610300051,2010,01,10,12,0.94
0610300051,2010,01,10,13,1.21
0610300051,2010,01,10,14,1.04
0610300051,2010,01,10,15,0.82
0610300051,2010,01,10,16,0.52
0610300051,2010,01,10,17,0.5
0610300051,2010,01,10,18,0.59
0610300051,2010,01,10,19,0.55
0610300051,2010,01,10,20,0.53
0610300051,2010,01,10,21,0.51
0610300051,2010,01,10,22,0.5
0610300051,2010,01,10,23,0.5
0610300051,2010,01,11,00,0.49
0610300051,2010,01,11,01,0.5
0610300051,2010,01,11,02,0.49
0610300051,2010,01,11,03,0.51
0610300051,2010,01,11,04,0.51
0610300051,2010,01,11,05,0.51
0610300051,2010,01,11,06,0.49
0610300051,2010,01,11,07,0.53
0610300051,2010,01,11,08,1.5
0610300051,2010,01,11,09,0.61
0610300051,2010,01,11,10,0.61
0610300051,2010,01,11,11,0.6
0610300051,2010,01,11,12,0.65
0610300051,2010,01,11,13,0.78
0610300051,2010,01,11,14,0.89
0610300051,2010,01,11,15,0.88
0610300051,2010,01,11,16,0.69
0610300051,2010,01,11,17,0.87
0610300051,2010,01,11,18,0.94
0610300051,2010,01,11,19,1.05
0610300051,2010,01,11,20,0.96
0610300051,2010,01,11,21,0.86
0610300051,2010,01,11,22,0.81
0610300051,2010,01,11,23,0.75
0610300051,2010,01,12,00,0.57
0610300051,2010,01,12,01,0.58
0610300051,2010,01,12,02,0.65
0610300051,2010,01,12,03,0.65
0610300051,2010,01,12,04,0.62
0610300051,2010,01,12,05,0.62
0610300051,2010,01,12,06,0.95
0610300051,2010,01,12,07,1.49
0610300051,2010,01,12,08,1.85
0610300051,2010,01,12,09,2.14
0610300051,2010,01,12,10,2.65
0610300051,2010,01,12,11,2.97
0610300051,2010,01,12,12,3.12
0610300051,2010,01,12,13,3.02
0610300051,2010,01,12,14,2.96
0610300051,2010,01,12,15,3.16
0610300051,2010,01,12,16,2.93
0610300051,2010,01,12,17,2.62
0610300051,2010,01,12,18,2.86
0610300051,2010,01,12,19,3.13
0610300051,2010,01,12,20,3.08
0610300051,2010,01,12,21,2.96
0610300051,2010,01,12,22,3.02
0610300051,2010,01,12,23,3.38
0610300051,2010,01,13,00,2.58
0610300051,2010,01,13,01,2.51
0610300051,2010,01,13,02,2.35
0610300051,2010,01,13,03,2.24
0610300051,2010,01,13,04,2.47
0610300051,2010,01,13,05,1.89
0610300051,2010,01,13,06,1.28
0610300051,2010,01,13,07,1.46
0610300051,2010,01,13,08,2.33
0610300051,2010,01,13,09,3.32
0610300051,2010,01,13,10,3.58
0610300051,2010,01,13,11,3.77
0610300051,2010,01,13,12,4.03
0610300051,2010,01,13,13,4.17
0610300051,2010,01,13,14,4.02
0610300051,2010,01,13,15,3.64
0610300051,2010,01,13,16,2.39
0610300051,2010,01,13,17,1.51
0610300051,2010,01,13,18,0.49
0610300051,2010,01,13,19,0.55
0610300051,2010,01,13,20,0.64
0610300051,2010,01,13,21,0.67
0610300051,2010,01,13,22,0.89
0610300051,2010,01,13,23,0.92
0610300051,2010,01,14,00,1.14
0610300051,2010,01,14,01,0.99
0610300051,2010,01,14,02,0.95
0610300051,2010,01,14,03,1.11
0610300051,2010,01,14,04,0.94
0610300051,2010,01,14,05,0.81
0610300051,2010,01,14,06,1.16
0610300051,2010,01,14,07,0.98
0610300051,2010,01,14,08,1.15
0610300051,2010,01,14,09,1.56
0610300051,2010,01,14,10,2.08
0610300051,2010,01,14,11,1.91
0610300051,2010,01,14,12,1.91
0610300051,2010,01,14,13,2.58
0610300051,2010,01,14,14,2.7
0610300051,2010,01,14,15,1.88
0610300051,2010,01,14,16,1.21
0610300051,2010,01,14,17,0.69
0610300051,2010,01,14,18,0.52
0610300051,2010,01,14,19,1.08
0610300051,2010,01,14,20,0.99
0610300051,2010,01,14,21,0.98
0610300051,2010,01,14,22,1.18
0610300051,2010,01,14,23,0.63
0610300051,2010,01,15,00,0.93
0610300051,2010,01,15,01,0.68
0610300051,2010,01,15,02,0.58
0610300051,2010,01,15,03,0.48
0610300051,2010,01,15,04,0.47
0610300051,2010,01,15,05,0.44
0610300051,2010,01,15,06,0.42
0610300051,2010,01,15,07,0.57
0610300051,2010,01,15,08,0.73
0610300051,2010,01,15,09,0.93
0610300051,2010,01,15,10,1.32
0610300051,2010,01,15,11,1.62
0610300051,2010,01,15,12,1.79
0610300051,2010,01,15,13,2.09
0610300051,2010,01,15,14,2.15
0610300051,2010,01,15,15,0.96
0610300051,2010,01,15,16,0.5
0610300051,2010,01,15,17,0.45
0610300051,2010,01,15,18,0.52
0610300051,2010,01,15,19,0.46
0610300051,2010,01,15,20,0.45
0610300051,2010,01,15,21,0.45
0610300051,2010,01,15,22,0.46
0610300051,2010,01,15,23,0.47
0610300051,2010,01,16,00,0.46
0610300051,2010,01,16,01,0.41
0610300051,2010,01,16,02,0.41
0610300051,2010,01,16,03,0.42
0610300051,2010,01,16,04,0.41
0610300051,2010,01,16,05,0.43
0610300051,2010,01,16,06,0.41
0610300051,2010,01,16,07,0.47
0610300051,2010,01,16,08,0.8
0610300051,2010,01,16,09,1.49
0610300051,2010,01,16,10,2.05
0610300051,2010,01,16,11,2.51
0610300051,2010,01,16,12,2.9
0610300051,2010,01,16,13,3.11
0610300051,2010,01,16,14,2.98
0610300051,2010,01,16,15,2.33
0610300051,2010,01,16,16,2.03
0610300051,2010,01,16,17,1.8
0610300051,2010,01,16,18,1.07
0610300051,2010,01,16,19,1.43
0610300051,2010,01,16,20,2.16
0610300051,2010,01,16,21,2
0610300051,2010,01,16,22,2.56
0610300051,2010,01,16,23,3.01
0610300051,2010,01,17,00,3.02
0610300051,2010,01,17,01,3.17
0610300051,2010,01,17,02,3.1
0610300051,2010,01,17,03,3.38
0610300051,2010,01,17,04,3.12
0610300051,2010,01,17,05,3.42
0610300051,2010,01,17,06,3.54
0610300051,2010,01,17,07,3.46
0610300051,2010,01,17,08,3.62
0610300051,2010,01,17,09,3.46
0610300051,2010,01,17,10,3.19
0610300051,2010,01,17,11,3.08
0610300051,2010,01,17,12,2.75
0610300051,2010,01,17,13,2.97
0610300051,2010,01,17,14,3.22
0610300051,2010,01,17,15,3.4
0610300051,2010,01,17,16,4.08
0610300051,2010,01,17,17,4.35
0610300051,2010,01,17,18,4.1
0610300051,2010,01,17,19,3.56
0610300051,2010,01,17,20,3.42
0610300051,2010,01,17,21,3.6
0610300051,2010,01,17,22,3.91
0610300051,2010,01,17,23,3.85
0610300051,2010,01,18,00,3.79
0610300051,2010,01,18,01,3.7
0610300051,2010,01,18,02,3.64
0610300051,2010,01,18,03,3.76
0610300051,2010,01,18,04,3.79
0610300051,2010,01,18,05,3.73
0610300051,2010,01,18,06,3.84
0610300051,2010,01,18,07,3.64
0610300051,2010,01,18,08,3.41
0610300051,2010,01,18,09,3.22
0610300051,2010,01,18,10,3.66
0610300051,2010,01,18,11,3.82
0610300051,2010,01,18,12,3.49
0610300051,2010,01,18,13,3.87
0610300051,2010,01,18,14,4.05
0610300051,2010,01,18,15,4.12
0610300051,2010,01,18,16,4.18
0610300051,2010,01,18,17,4.19
0610300051,2010,01,18,18,4.29
0610300051,2010,01,18,19,4.15
0610300051,2010,01,18,20,3.92
0610300051,2010,01,18,21,4
0610300051,2010,01,18,22,4.04
0610300051,2010,01,18,23,4.11
0610300051,2010,01,19,00,4.01
0610300051,2010,01,19,01,4.14
0610300051,2010,01,19,02,4.32
0610300051,2010,01,19,03,4.43
0610300051,2010,01,19,04,4.3
0610300051,2010,01,19,05,4.15
0610300051,2010,01,19,06,4.12
0610300051,2010,01,19,07,4.15
0610300051,2010,01,19,08,4.6
0610300051,2010,01,19,09,3.56
0610300051,2010,01,19,10,4.09
0610300051,2010,01,19,11,3.98
0610300051,2010,01,19,12,3.9
0610300051,2010,01,19,13,3.98
0610300051,2010,01,19,14,3.82
0610300051,2010,01,19,15,4.1
0610300051,2010,01,19,16,3.88
0610300051,2010,01,19,17,3.89
0610300051,2010,01,19,18,4.04
0610300051,2010,01,19,19,4.04
0610300051,2010,01,19,20,4.41
0610300051,2010,01,19,21,3.98
0610300051,2010,01,19,22,3.87
0610300051,2010,01,19,23,3.92
0610300051,2010,01,20,00,3.89
0610300051,2010,01,20,01,4.24
0610300051,2010,01,20,02,4.48
0610300051,2010,01,20,03,4.54
0610300051,2010,01,20,04,4.61
0610300051,2010,01,20,05,4.49
0610300051,2010,01,20,06,4.46
0610300051,2010,01,20,07,4.31
0610300051,2010,01,20,08,4.1
0610300051,2010,01,20,09,4
0610300051,2010,01,20,10,4.03
0610300051,2010,01,20,11,4.05
0610300051,2010,01,20,12,4.3
0610300051,2010,01,20,13,4.17
0610300051,2010,01,20,14,4.09
0610300051,2010,01,20,15,4.21
0610300051,2010,01,20,16,4.28
0610300051,2010,01,20,17,4.28
0610300051,2010,01,20,18,4.35
0610300051,2010,01,20,19,4.83
0610300051,2010,01,20,20,4.34
0610300051,2010,01,20,21,4.28
0610300051,2010,01,20,22,4.39
0610300051,2010,01,20,23,4.33
0610300051,2010,01,21,00,4.47
0610300051,2010,01,21,01,4.52
0610300051,2010,01,21,02,4.41
0610300051,2010,01,21,03,4.31
0610300051,2010,01,21,04,4.2
0610300051,2010,01,21,05,4.2
0610300051,2010,01,21,06,4.11
0610300051,2010,01,21,07,3.84
0610300051,2010,01,21,08,3.39
0610300051,2010,01,21,09,3.76
0610300051,2010,01,21,10,3.52
0610300051,2010,01,21,11,3.39
0610300051,2010,01,21,12,3.69
0610300051,2010,01,21,13,3.61
0610300051,2010,01,21,14,3.22
0610300051,2010,01,21,15,2.67
0610300051,2010,01,21,16,3.46
0610300051,2010,01,21,17,3.73
0610300051,2010,01,21,18,3.36
0610300051,2010,01,21,19,2.6
0610300051,2010,01,21,20,2.22
0610300051,2010,01,21,21,3.23
0610300051,2010,01,21,22,3.16
0610300051,2010,01,21,23,3.13
0610300051,2010,01,22,00,3.08
0610300051,2010,01,22,01,3.21
0610300051,2010,01,22,02,3.33
0610300051,2010,01,22,03,3.45
0610300051,2010,01,22,04,3.37
0610300051,2010,01,22,05,3.38
0610300051,2010,01,22,06,3.22
0610300051,2010,01,22,07,3.19
0610300051,2010,01,22,08,3.24
0610300051,2010,01,22,09,3.27
0610300051,2010,01,22,10,3.1
0610300051,2010,01,22,11,3.16
0610300051,2010,01,22,12,3.35
0610300051,2010,01,22,13,3.26
0610300051,2010,01,22,14,3.33
0610300051,2010,01,22,15,3.41
0610300051,2010,01,22,16,2.84
0610300051,2010,01,22,17,3.14
0610300051,2010,01,22,18,3.43
0610300051,2010,01,22,19,3.47
0610300051,2010,01,22,20,3.31
0610300051,2010,01,22,21,3.31
0610300051,2010,01,22,22,3.25
0610300051,2010,01,22,23,3.29
0610300051,2010,01,23,00,3.24
0610300051,2010,01,23,01,2.62
0610300051,2010,01,23,02,2.6
0610300051,2010,01,23,03,3.17
0610300051,2010,01,23,04,3.34
0610300051,2010,01,23,05,3.32
0610300051,2010,01,23,06,3.6
0610300051,2010,01,23,07,3.47
0610300051,2010,01,23,08,3.44
0610300051,2010,01,23,09,3.5
0610300051,2010,01,23,10,3.67
0610300051,2010,01,23,11,3.46
0610300051,2010,01,23,12,3.3
0610300051,2010,01,23,13,2.89
0610300051,2010,01,23,14,2.55
0610300051,2010,01,23,15,2.39
0610300051,2010,01,23,16,1.24
0610300051,2010,01,23,17,1.7
0610300051,2010,01,23,18,1.78
0610300051,2010,01,23,19,1.82
0610300051,2010,01,23,20,1.56
0610300051,2010,01,23,21,1.18
0610300051,2010,01,23,22,1.23
0610300051,2010,01,23,23,1.56
0610300051,2010,01,24,00,1.06
0610300051,2010,01,24,01,0.46
0610300051,2010,01,24,02,0.53
0610300051,2010,01,24,03,0.66
0610300051,2010,01,24,04,1.44
0610300051,2010,01,24,05,1.81
0610300051,2010,01,24,06,1.65
0610300051,2010,01,24,07,1.6
0610300051,2010,01,24,08,1.81
0610300051,2010,01,24,09,2.27
0610300051,2010,01,24,10,2.61
0610300051,2010,01,24,11,2.64
0610300051,2010,01,24,12,2.95
0610300051,2010,01,24,13,3.55
0610300051,2010,01,24,14,4.04
0610300051,2010,01,24,15,3.96
0610300051,2010,01,24,16,3.77
0610300051,2010,01,24,17,3.33
0610300051,2010,01,24,18,2.93
0610300051,2010,01,24,19,2.88
0610300051,2010,01,24,20,2.65
0610300051,2010,01,24,21,2.54
0610300051,2010,01,24,22,2.82
0610300051,2010,01,24,23,2.77
0610300051,2010,01,25,00,2.98
0610300051,2010,01,25,01,3.24
0610300051,2010,01,25,02,3.16
0610300051,2010,01,25,03,2.81
0610300051,2010,01,25,04,2.12
0610300051,2010,01,25,05,2.06
0610300051,2010,01,25,06,2.41
0610300051,2010,01,25,07,2.33
0610300051,2010,01,25,08,2.14
0610300051,2010,01,25,09,1.98
0610300051,2010,01,25,10,1.95
0610300051,2010,01,25,11,2.44
0610300051,2010,01,25,12,2.32
0610300051,2010,01,25,13,2.55
0610300051,2010,01,25,14,3.39
0610300051,2010,01,25,15,3.25
0610300051,2010,01,25,16,2.86
0610300051,2010,01,25,17,2.49
0610300051,2010,01,25,18,2.77
0610300051,2010,01,25,19,2.89
0610300051,2010,01,25,20,2.66
0610300051,2010,01,25,21,2.99
0610300051,2010,01,25,22,3.32
0610300051,2010,01,25,23,3.34
0610300051,2010,01,26,00,3.54
0610300051,2010,01,26,01,3.5
0610300051,2010,01,26,02,3.64
0610300051,2010,01,26,03,3.13
0610300051,2010,01,26,04,3.2
0610300051,2010,01,26,05,2.97
0610300051,2010,01,26,06,2.76
0610300051,2010,01,26,07,2.51
0610300051,2010,01,26,08,1.71
0610300051,2010,01,26,09,2.26
0610300051,2010,01,26,10,2.62
0610300051,2010,01,26,11,2.83
0610300051,2010,01,26,12,2.9
0610300051,2010,01,26,13,3.58
0610300051,2010,01,26,14,3.7
0610300051,2010,01,26,15,3.29
0610300051,2010,01,26,16,1.82
0610300051,2010,01,26,17,1.72
0610300051,2010,01,26,18,2.37
0610300051,2010,01,26,19,2.44
0610300051,2010,01,26,20,1.72
0610300051,2010,01,26,21,1.32
0610300051,2010,01,26,22,1.5
0610300051,2010,01,26,23,1.8
0610300051,2010,01,27,00,1.66
0610300051,2010,01,27,01,1.52
0610300051,2010,01,27,02,1.21
0610300051,2010,01,27,03,1.69
0610300051,2010,01,27,04,1.73
0610300051,2010,01,27,05,1.16
0610300051,2010,01,27,06,1.1
0610300051,2010,01,27,07,1.07
0610300051,2010,01,27,08,2.15
0610300051,2010,01,27,09,2.22
0610300051,2010,01,27,10,2.87
0610300051,2010,01,27,11,3.42
0610300051,2010,01,27,12,3.78
0610300051,2010,01,27,13,3.77
0610300051,2010,01,27,14,3.48
0610300051,2010,01,27,15,3.37
0610300051,2010,01,27,16,2.54
0610300051,2010,01,27,17,2.56
0610300051,2010,01,27,18,1.29
0610300051,2010,01,27,19,0.77
0610300051,2010,01,27,20,1.55
0610300051,2010,01,27,21,1.33
0610300051,2010,01,27,22,0.89
0610300051,2010,01,27,23,1.87
0610300051,2010,01,28,00,1.78
0610300051,2010,01,28,01,2.32
0610300051,2010,01,28,02,1.75
0610300051,2010,01,28,03,1.8
0610300051,2010,01,28,04,1.83
0610300051,2010,01,28,05,1.26
0610300051,2010,01,28,06,1.37
0610300051,2010,01,28,07,1.31
0610300051,2010,01,28,08,1.69
0610300051,2010,01,28,09,1.81
0610300051,2010,01,28,10,2.09
0610300051,2010,01,28,11,2.5
0610300051,2010,01,28,12,2.58
0610300051,2010,01,28,13,2.7
0610300051,2010,01,28,14,2.75
0610300051,2010,01,28,15,2.44
0610300051,2010,01,28,16,1.55
0610300051,2010,01,28,17,1
0610300051,2010,01,28,18,1
0610300051,2010,01,28,19,0.63
0610300051,2010,01,28,20,0.9
0610300051,2010,01,28,21,0.52
0610300051,2010,01,28,22,1.02
0610300051,2010,01,28,23,1.16
0610300051,2010,01,29,00,1.33
0610300051,2010,01,29,01,1.05
0610300051,2010,01,29,02,0.78
0610300051,2010,01,29,03,1.03
0610300051,2010,01,29,04,0.99
0610300051,2010,01,29,05,0.67
0610300051,2010,01,29,06,0.74
0610300051,2010,01,29,07,0.75
0610300051,2010,01,29,08,0.96
0610300051,2010,01,29,09,1.28
0610300051,2010,01,29,10,1.56
0610300051,2010,01,29,11,1.94
0610300051,2010,01,29,12,1.96
0610300051,2010,01,29,13,2.83
0610300051,2010,01,29,14,2.07
0610300051,2010,01,29,15,1.85
0610300051,2010,01,29,16,1.17
0610300051,2010,01,29,17,1.45
0610300051,2010,01,29,18,1.26
0610300051,2010,01,29,19,1.3
0610300051,2010,01,29,20,1.03
0610300051,2010,01,29,21,1.06
0610300051,2010,01,29,22,0.64
0610300051,2010,01,29,23,0.9
0610300051,2010,01,30,00,1.15
0610300051,2010,01,30,01,1.46
0610300051,2010,01,30,02,1.65
0610300051,2010,01,30,03,2.13
0610300051,2010,01,30,04,2.37
0610300051,2010,01,30,05,2.51
0610300051,2010,01,30,06,2.54
0610300051,2010,01,30,07,1.76
0610300051,2010,01,30,08,1.62
0610300051,2010,01,30,09,2.27
0610300051,2010,01,30,10,2.94
0610300051,2010,01,30,11,3.39
0610300051,2010,01,30,12,3.64
0610300051,2010,01,30,13,3.78
0610300051,2010,01,30,14,3.68
0610300051,2010,01,30,15,3.57
0610300051,2010,01,30,16,2.85
0610300051,2010,01,30,17,1.22
0610300051,2010,01,30,18,0.85
0610300051,2010,01,30,19,0.88
0610300051,2010,01,30,20,1.02
0610300051,2010,01,30,21,1.01
0610300051,2010,01,30,22,0.97
0610300051,2010,01,30,23,1.18
0610300051,2010,01,31,00,1.01
0610300051,2010,01,31,01,0.96
0610300051,2010,01,31,02,1.07
0610300051,2010,01,31,03,1.09
0610300051,2010,01,31,04,0.95
0610300051,2010,01,31,05,0.89
0610300051,2010,01,31,06,0.67
0610300051,2010,01,31,07,0.91
0610300051,2010,01,31,08,1.39
0610300051,2010,01,31,09,2.19
0610300051,2010,01,31,10,2.76
0610300051,2010,01,31,11,3.58
0610300051,2010,01,31,12,3.84
0610300051,2010,01,31,13,4.19
0610300051,2010,01,31,14,3.99
0610300051,2010,01,31,15,3.5
0610300051,2010,01,31,16,2.12
0610300051,2010,01,31,17,0.92
0610300051,2010,01,31,18,0.76
0610300051,2010,01,31,19,0.9
0610300051,2010,01,31,20,0.83
0610300051,2010,01,31,21,1
0610300051,2010,01,31,22,0.94
0610300051,2010,01,31,23,1.04
0610300051,2010,02,01,00,1.55
0610300051,2010,02,01,01,1.55
0610300051,2010,02,01,02,1.18
0610300051,2010,02,01,03,1.4
0610300051,2010,02,01,04,0.99
0610300051,2010,02,01,05,0.99
0610300051,2010,02,01,06,0.87
0610300051,2010,02,01,07,0.61
0610300051,2010,02,01,08,0.78
0610300051,2010,02,01,09,0.89
0610300051,2010,02,01,10,1.04
0610300051,2010,02,01,11,1.49
0610300051,2010,02,01,12,1.87
0610300051,2010,02,01,13,2.05
0610300051,2010,02,01,14,2.04
0610300051,2010,02,01,15,1.77
0610300051,2010,02,01,16,1.85
0610300051,2010,02,01,17,1.99
0610300051,2010,02,01,18,2.52
0610300051,2010,02,01,19,2.55
0610300051,2010,02,01,20,2.43
0610300051,2010,02,01,21,2.52
0610300051,2010,02,01,22,2.97
0610300051,2010,02,01,23,3.21
0610300051,2010,02,02,00,3.09
0610300051,2010,02,02,01,2.86
0610300051,2010,02,02,02,1.89
0610300051,2010,02,02,03,2.03
0610300051,2010,02,02,04,2.33
0610300051,2010,02,02,05,2.1
0610300051,2010,02,02,06,1.14
0610300051,2010,02,02,07,1.01
0610300051,2010,02,02,08,2.32